Location: Aalen
(48.8330°N, 10.1000°E)
Time: 12:34:01
(UTC+02:00)

IRIDIUM 33 DEB - Pass Details

Date: 05 February 2022
Orbit: 754 x 833 km, 86.3° (Epoch: 25 May)

Event Time Altitude Azimuth Distance (km) Brightness Sun altitude
Rises 20:49:13 0° 352° (N) 3,390 ? -33.9°
Reaches altitude 10° 20:51:38 10° 349° (N) 2,456 ? -34.3°
Enters shadow 20:54:09 27° 340° (NNW) 1,553 ? -34.7°
